SCP
0 0 0 0 0 0 0 0 0 0 0 0 0 0 0 0 0 0 0 0 0 0 0 0 0 0 0 0 0 0 0 0 0 0 0 0 0 0
0 0 0 0 0 0 0 0 0 0 0 0 0 0 0 0 0 0 0 0 0 0 0 0 0 0 0 0 0 0 0 0 0 0 0 0 0 0
0 0 0 0 0 0 0 0 0 0 0 0 0 0 0 0 0 0 0 0 0 0 0 0 0 0 0 0 0 0 0 0 0 0 0 0 0 0
0 0 0 0 0 0 0 0 0 0 0 0 0 0 0 0 0 0 0 0 0 0 0 0 0 0 0 0 0 0 0 0 0 0 0 0 0 0
0 0 0 0 0 0 0 0 0 0 0 0 0 0 0 0 0 0 0 0 0 0 0 0 0 0 0 0 0 0 0 0 0 0 0 0 0 0
0 0 0 0 0 0 0 0 0 0 0 0 0 0 0 0 0 0 0 0 0 0 0 0 0 0 0 0 0 0 0 0 0 0 0 0 0 0
0 0 0 0 0 0 0 0 0 0 0 0 0 0 0 0 0 0 0 0 0 0 0 0 0 0 0 0 0 0 0 0 0 0 0 0 0 0
0 0 0 0 0 0 0 0 0 0 0 0 0 0 0 0 0 0 0 0 0 0 0 0 0 0 0 0 0 0 0 0 0 0 0 0 0 0
0 0 0 0 0 0 0 0 0 0 0 0 0 0 0 0 0 0 0 0 0 0 0 0 0 0 0 0 0 0 0 0 0 0 0 0 0 0
0 0 0 0 0 0 0 0 0 0 0 0 0 0 0 0 0 0 0 0 0 0 0 0 0 0 0 0 0 0 0 0 0 0 0 0 0 0
0 0 0 0 0 0 0 0 0 0 0 0 0 0 0 0 0 0 0 0 0 0 0 0 0 0 0 0 0 0 0 0 0 0 0 0 0 0
0 0 0 0 0 0 0 0 0 0 0 0 0 0 0 0 0 0 0 0 0 0 0 0 0 0 0 0 0 0 0 0 0 0 0 0 0 0
0 0 0 0 0 0 0 0 0 0 0 0 0 0 0 0 0 0 0 0 0 0 0 0 0 0 0 0 0 0 0 0 0 0 0 0 0 0
0 0 0 0 0 0 0 0 0 0 0 0 0 0 0 0 0 0 0 0 0 0 0 0 0 0 0 0 0 0 0 0 0 0 0 0 0 0
0 0 0 0 0 0 0 0 0 0 0 0 0 0 0 0 0 0 0 0 0 0 0 0 0 0 0 0 0 0 0 0 0 0 0 0 0 0
0 0 0 0 0 0 0 0 0 0 0 0 0 0 0 0 0 0 0 0 0 0 0 0 0 0 0 0 0 0 0 0 0 0 0 0 0 0
0 0 0 0 0 0 0 0 0 0 0 0 0 0 0 0 0 0 0 0 0 0 0 0 0 0 0 0 0 0 0 0 0 0 0 0 0 0
0 0 0 0 0 0 0 0 0 0 0 0 0 0 0 0 0 0 0 0 0 0 0 0 0 0 0 0 0 0 0 0 0 0 0 0 0 0
0 0 0 0 0 0 0 0 0 0 0 0 0 0 0 0 0 0 0 0 0 0 0 0 0 0 0 0 0 0 0 0 0 0 0 0 0 0
0 0 0 0 0 0 0 0 0 0 0 0 0 0 0 0 0 0 0 0 0 0 0 0 0 0 0 0 0 0 0 0 0 0 0 0 0 0
0 0 0 0 0 0 0 0 0 0 0 0 0 0 0 0 0 0 0 0 0 0 0 0 0 0 0 0 0 0 0 0 0 0 0 0 0 0
0 0 0 0 0 0 0 0 0 0 0 0 0 0 0 0 0 0 0 0 0 0 0 0 0 0 0 0 0 0 0 0 0 0 0 0 0 0
0 0 0 0 0 0 0 0 0 0 0 0 0 0 0 0 0 0 0 0 0 0 0 0 0 0 0 0 0 0 0 0 0 0 0 0 0 0
Wind_Speed
3 3 2 1 1 2 2 3 3 2 1 2 2 3 2 1 1 0 0 0 1 2 2 2 2 3 3 4 5 5 6 6 7 7 7 7 8 8
2 3 2 1 1 1 1 1 2 3 2 1 1 2 3 3 4 3 3 5 5 4 3 2 2 2 2 3 4 4 5 6 6 7 7 7 8 8
3 3 2 2 2 1 1 2 1 2 2 1 1 2 3 4 4 4 4 4 4 7 6 6 5 5 4 4 4 5 5 5 5 6 6 7 7 8
4 3 3 2 2 1 1 2 1 1 2 2 1 2 3 3 4 4 4 4 4 9 9 9 8 7 7 7 6 5 5 5 5 5 6 6 7 8
4 4 3 4 3 2 2 2 1 1 1 2 1 2 2 3 3 4 5 4 4 6 7 8 8 7 7 7 7 6 6 6 6 6 6 6 7 8
4 4 3 3 3 3 3 2 2 3 3 2 2 2 2 3 3 3 3 3 3 4 5 5 7 7 8 7 7 8 7 6 7 7 7 7 7 7
7 6 7 8 8 6 4 3 3 3 3 3 2 2 2 3 3 2 2 2 2 3 3 3 3 4 5 6 7 9 8 7 7 7 8 8 8 8
8 7 8 10 13 14 14 12 8 5 4 3 2 3 2 2 2 2 2 2 2 3 3 2 2 3 4 3 6 7 8 8 8 8 9 9 9 9
7 6 6 7 8 8 12 14 14 14 10 5 5 3 3 3 2 2 2 2 2 3 3 2 2 3 4 4 6 7 8 9 10 10 11 11 10 10
8 7 8 7 7 8 9 10 10 10 9 7 6 5 5 4 3 2 2 2 1 2 3 2 3 4 5 4 5 8 9 10 11 12 12 12 11 12
9 9 9 8 11 11 9 9 9 8 11 14 13 12 13 12 8 4 4 3 2 2 3 3 3 5 4 3 4 9 11 11 12 13 13 12 11 11
8 9 13 12 12 11 8 8 8 6 6 8 9 10 9 11 12 7 4 3 2 2 3 4 3 4 5 3 4 6 7 9 11 12 12 12 11 9
7 6 7 14 14 13 11 8 8 6 6 7 7 7 7 7 7 6 5 3 3 2 4 4 3 3 4 5 5 6 7 8 8 8 9 10 12 10
7 6 8 13 14 13 10 11 11 8 6 6 6 6 6 6 6 6 6 5 3 3 4 3 3 3 5 6 6 6 7 8 7 7 7 9 10 11
8 12 12 13 12 10 13 12 9 6 6 6 5 5 4 4 5 5 5 6 5 4 4 4 4 4 4 6 7 8 8 7 6 7 9 9 9 9
9 11 13 13 10 10 9 8 6 5 5 4 4 3 4 5 5 5 5 6 5 5 6 6 5 6 5 7 8 9 8 7 8 9 10 9 9 8
7 6 6 5 6 5 5 5 5 5 5 4 4 4 5 5 5 5 4 5 5 6 7 6 7 6 7 7 8 8 8 9 9 9 10 10 10 9
8 6 5 4 4 4 4 4 4 4 4 4 4 4 5 6 6 6 5 5 6 6 7 7 7 7 6 5 6 8 8 9 10 10 10 10 11 10
7 5 4 4 3 3 3 3 3 3 3 3 4 5 5 5 6 6 6 6 6 7 7 7 6 6 9 10 7 6 9 10 10 10 9 9 11 11
5 4 3 3 2 2 2 2 2 2 3 3 4 4 5 5 6 7 7 8 7 7 7 7 7 7 8 9 9 10 12 10 9 10 10 10 10 11
3 3 2 2 2 1 1 1 2 2 3 4 4 5 5 5 6 6 7 8 7 7 8 8 8 12 9 7 8 9 9 10 11 10 11 10 10 9
2 2 1 1 1 0 1 1 2 2 3 3 4 5 5 5 6 7 7 7 7 7 9 9 10 9 6 7 10 11 11 12 11 12 11 10 8 8
2 1 1 1 0 0 1 1 2 3 3 4 4 5 5 5 5 6 7 7 7 8 9 9 8 8 8 8 9 10 13 13 10 10 9 10 12 14
Wind_Direction
158 161 162 168 169 173 163 158 152 173 255 311 324 342 342 342 339 41 246 322 247 244 247 254 267 278 282 282 282 281 278 277 276 276 276 276 275 274
151 150 148 142 134 139 150 148 149 161 194 261 322 346 358 29 45 54 55 56 55 62 62 51 32 7 340 320 310 302 296 291 287 281 277 274 271 270
154 158 161 146 134 131 125 125 134 148 173 209 3 3 24 35 35 46 52 55 57 58 61 57 49 43 37 26 16 1 344 327 314 305 298 290 284 279
166 156 159 146 136 135 134 134 146 171 171 175 50 25 32 30 38 44 42 51 60 58 62 59 55 50 44 39 31 18 3 353 343 331 320 309 299 291
154 152 153 148 144 130 121 119 115 108 116 136 101 42 34 27 34 40 40 27 45 49 58 55 45 43 40 37 30 22 11 4 353 341 332 323 315 307
107 110 109 120 122 114 96 85 90 85 83 95 84 49 34 20 39 33 28 20 24 28 31 39 40 39 33 29 29 24 16 14 7 358 347 333 320 311
86 82 84 89 91 89 89 84 89 90 86 82 70 54 35 24 22 5 12 357 25 18 1 16 20 22 19 18 25 24 19 12 6 359 350 340 328 317
92 81 75 73 79 78 76 73 76 84 89 87 75 65 36 15 5 6 5 4 357 10 348 345 7 6 3 8 13 17 16 12 1 352 345 338 330 321
88 84 79 72 72 78 73 68 63 62 68 89 83 64 41 11 5 16 16 359 335 344 332 317 343 341 343 351 354 6 9 3 355 348 342 335 328 320
78 81 85 74 72 81 81 74 66 58 59 65 74 62 51 34 28 21 350 329 303 356 357 322 335 327 327 323 339 2 2 353 345 338 332 327 323 317
74 71 79 77 74 80 84 81 72 63 64 67 67 61 56 51 44 39 25 13 351 354 8 338 328 322 310 304 332 348 344 336 331 327 324 321 319 316
76 69 71 77 72 74 81 85 79 61 58 56 52 46 44 42 41 41 28 14 351 333 3 341 330 333 314 305 320 324 322 318 316 315 316 318 321 319
89 78 74 78 76 73 74 76 82 82 70 64 56 45 37 32 27 23 21 11 351 331 344 336 320 323 302 304 307 306 312 317 317 312 312 313 312 312
97 92 87 83 79 76 76 77 76 73 67 60 53 39 29 19 8 3 3 2 340 306 317 329 318 314 308 304 305 308 311 311 311 313 318 315 306 298
93 95 88 81 79 74 71 69 67 65 64 59 48 32 12 357 354 351 353 349 342 338 348 339 322 308 294 295 303 305 311 311 310 317 318 314 312 309
89 87 80 71 69 67 64 59 57 59 62 55 37 16 3 2 4 358 348 346 337 333 333 331 324 313 300 296 295 299 306 306 311 314 314 309 304 301
102 86 76 71 68 64 60 55 52 49 46 36 25 14 5 1 356 351 344 341 336 328 327 328 326 313 290 285 294 299 307 309 311 314 313 309 306 303
96 90 85 79 76 69 62 52 44 38 29 21 15 7 358 352 346 345 343 338 332 326 323 325 328 327 321 304 269 296 309 312 312 310 307 305 305 305
91 93 92 87 80 70 59 48 32 21 13 10 5 356 349 344 340 339 340 336 330 325 322 323 326 329 327 326 314 291 305 309 309 309 308 306 303 304
89 98 98 92 82 69 55 40 20 8 4 357 351 347 343 339 337 336 334 331 325 321 320 322 325 326 316 309 304 303 299 301 308 310 311 308 302 294
90 91 95 95 83 68 46 16 357 348 346 342 341 339 337 333 330 328 324 322 319 318 319 318 314 312 302 292 296 305 309 303 296 300 308 310 313 311
110 108 104 99 90 61 4 342 337 337 338 336 333 332 330 327 324 323 322 320 317 313 310 308 312 315 313 311 313 314 315 318 314 304 295 293 310 313
139 137 130 121 109 305 313 322 326 329 332 330 327 326 326 323 320 316 315 314 314 315 317 317 320 319 315 313 313 315 319 324 325 326 325 321 310 302